Christchurch, New Zealand

8:03 PM NZST on August 24, 2017 (GMT +1200)
Christchurch

Weather History for 93780 - February, 2014

Change the Weather History Date:

Monday, February 3, 2014

  Actual Average Record
Temperature  
Mean Temperature 60 °F -  
Max Temperature 71 °F 69 °F - ()
Min Temperature 48 °F 51 °F - ()
Degree Days  
Heating Degree Days 6    
Growing Degree Days 10 (Base 50)    
Moisture  
Dew Point 53 °F    
Average Humidity 77    
Maximum Humidity 100    
Minimum Humidity 50    
Precipitation  
Precipitation 0.00 in - - ()
Sea Level Pressure  
Sea Level Pressure 30.17 in    
Wind  
Wind Speed 8 mph ()    
Max Wind Speed 18 mph    
Max Gust Speed -    
Visibility 5.9 miles    
Events      
T = Trace of Precipitation, MM = Missing Value Source: Averaged Metar Reports

Daily Weather History Graph

Daily Weather History Graph

Search for Another Location

Airport or City:

Trip Planner

Search our weather history database for the weather conditions in past years. The results will help you decide how hot, cold, wet, or windy it might be!

Date:

Astronomy

Feb. 03, 2014 Rise Set
Actual Time 6:32 AM NZDT 8:53 PM NZDT
Civil Twilight 6:00 AM NZDT 9:25 PM NZDT
Nautical Twilight 5:20 AM NZDT 10:05 PM NZDT
Astronomical Twilight 4:36 AM NZDT 10:49 PM NZDT
Moon 10:20 AM NZDT (2/3) 10:27 PM NZDT (2/3)
Length of Visible Light 15h 25m
Length of Day
14h 21m
Waxing Crescent, 13% of the Moon is Illuminated
Feb 3
Waxing Crescent
Feb 7
First Quarter
Feb 15
Full
Feb 23
Last Quarter
Mar 1
New

Hourly Weather History & Observations

Time (NZDT) Temp. Dew Point Humidity Pressure Visibility Wind Dir Wind Speed Gust Speed Precip Events Conditions
12:00 AM 53.6 °F 50.0 °F 88% 30.18 in 6.2 mi ENE 5.8 mph - N/A   Unknown
12:30 AM 55.4 °F 51.8 °F 88% 30.21 in 6.2 mi East 6.9 mph - N/A   Unknown
1:30 AM 55.4 °F 51.8 °F 88% 30.18 in 6.2 mi East 6.9 mph - N/A   Unknown
2:00 AM 55.4 °F 51.8 °F 88% 30.18 in 6.2 mi ENE 6.9 mph - N/A   Unknown
2:30 AM 53.6 °F 50.0 °F 88% 30.18 in 6.2 mi ENE 4.6 mph - N/A   Unknown
3:00 AM 51.8 °F 50.0 °F 94% 30.18 in 6.2 mi NE 4.6 mph - N/A   Unknown
3:30 AM 51.8 °F 50.0 °F 94% 30.18 in 6.2 mi NNE 3.5 mph - N/A   Unknown
4:00 AM 50.0 °F 50.0 °F 100% 30.18 in 6.2 mi NNE 3.5 mph - N/A   Unknown
4:30 AM 50.0 °F 50.0 °F 100% 30.18 in 1.2 mi North 1.2 mph - N/A   Mist
5:00 AM 50.0 °F 50.0 °F 100% 30.18 in 0.7 mi North 2.3 mph - N/A   Mist
5:30 AM 50.0 °F 50.0 °F 100% 30.18 in 2.5 mi NNW 1.2 mph - N/A   Mist
6:00 AM 48.2 °F 48.2 °F 100% 30.18 in 6.2 mi North 3.5 mph - N/A   Partly Cloudy
6:30 AM 48.2 °F 48.2 °F 100% 30.18 in - NNW 2.3 mph - N/A   Mist
7:00 AM 48.2 °F 48.2 °F 100% 30.18 in 6.2 mi North 2.3 mph - N/A   Unknown
7:30 AM 48.2 °F 48.2 °F 100% 30.18 in 6.2 mi North 2.3 mph - N/A   Unknown
8:00 AM 53.6 °F 53.6 °F 100% 30.18 in 6.2 mi NNE 3.5 mph - N/A   Unknown
8:30 AM 55.4 °F 53.6 °F 94% 30.18 in 6.2 mi NE 6.9 mph - N/A   Unknown
9:00 AM 60.8 °F 55.4 °F 82% 30.18 in 6.2 mi NE 6.9 mph - N/A   Unknown
9:30 AM 62.6 °F 55.4 °F 77% 30.18 in 6.2 mi ENE 10.4 mph - N/A   Unknown
10:00 AM 66.2 °F 55.4 °F 68% 30.18 in 6.2 mi East 11.5 mph - N/A   Unknown
10:30 AM 66.2 °F 55.4 °F 68% 30.18 in 6.2 mi East 12.7 mph - N/A   Unknown
11:00 AM 69.8 °F 55.4 °F 60% 30.18 in 6.2 mi East 13.8 mph - N/A   Unknown
11:30 AM 68.0 °F 55.4 °F 64% 30.18 in 6.2 mi East 13.8 mph - N/A   Unknown
12:00 PM 69.8 °F 55.4 °F 60% 30.18 in 6.2 mi East 15.0 mph - N/A   Unknown
12:30 PM 69.8 °F 55.4 °F 60% 30.18 in 6.2 mi East 15.0 mph - N/A   Unknown
1:00 PM 71.6 °F 55.4 °F 57% 30.18 in 6.2 mi East 16.1 mph - N/A   Unknown
1:30 PM 71.6 °F 55.4 °F 57% 30.18 in 6.2 mi East 15.0 mph - N/A   Unknown
2:00 PM 71.6 °F 53.6 °F 53% 30.18 in 6.2 mi ENE 16.1 mph - N/A   Unknown
2:30 PM 71.6 °F 53.6 °F 53% 30.15 in 6.2 mi ENE 17.3 mph - N/A   Unknown
3:00 PM 69.8 °F 53.6 °F 56% 30.15 in 6.2 mi ENE 18.4 mph - N/A   Unknown
3:30 PM 71.6 °F 53.6 °F 53% 30.15 in 6.2 mi ENE 18.4 mph - N/A   Unknown
4:00 PM 69.8 °F 51.8 °F 53% 30.15 in 6.2 mi ENE 18.4 mph - N/A   Unknown
4:30 PM 71.6 °F 51.8 °F 50% 30.15 in 6.2 mi ENE 16.1 mph - N/A   Unknown
5:00 PM 69.8 °F 53.6 °F 56% 30.15 in 6.2 mi East 16.1 mph - N/A   Unknown
5:30 PM 68.0 °F 51.8 °F 56% 30.15 in 6.2 mi East 16.1 mph - N/A   Unknown
6:00 PM 68.0 °F 53.6 °F 60% 30.15 in 6.2 mi East 16.1 mph - N/A   Unknown
6:30 PM 66.2 °F 53.6 °F 64% 30.15 in 6.2 mi East 15.0 mph - N/A   Unknown
7:00 PM 66.2 °F 51.8 °F 60% 30.15 in 6.2 mi East 16.1 mph - N/A   Unknown
7:30 PM 64.4 °F 53.6 °F 68% 30.15 in 6.2 mi East 15.0 mph - N/A   Unknown
8:00 PM 62.6 °F 53.6 °F 72% 30.15 in 6.2 mi ENE 16.1 mph - N/A   Unknown
8:30 PM 62.6 °F 53.6 °F 72% 30.15 in 6.2 mi East 15.0 mph - N/A   Unknown
9:00 PM 60.8 °F 55.4 °F 82% 30.15 in 6.2 mi East 12.7 mph - N/A   Unknown
9:30 PM 59.0 °F 53.6 °F 82% 30.15 in 6.2 mi ENE 11.5 mph - N/A   Unknown
10:00 PM 59.0 °F 53.6 °F 82% 30.15 in 6.2 mi ENE 10.4 mph - N/A   Unknown
10:30 PM 59.0 °F 55.4 °F 88% 30.15 in 6.2 mi ENE 10.4 mph - N/A   Unknown
11:00 PM 59.0 °F 55.4 °F 88% 30.15 in 6.2 mi ENE 10.4 mph - N/A   Unknown
11:30 PM 59.0 °F 55.4 °F 88% 30.12 in 6.2 mi East 10.4 mph - N/A   Unknown